Regional Weather Roundup
Issued by NWS

Home | Current Version | Previous Version | Text Only | Print | Product List | Glossary On
Versions: 1 2 3 4 5 6 7 8 9 10 11 12 13 14 15 16 17 18 19 20 21 22 23 24 25 26 27 28 29 30 31 32 33 34 35 36 37 38 39 40 41 42 43 44 45 46 47 48 49 50
000
ASUS45 KPSR 272310
RWRAZ

ARIZONA HOURLY REGIONAL WEATHER ROUNDUP
NATIONAL WEATHER SERVICE PHOENIX AZ
400 PM MST TUE JUN 27 2017

NOTE: FAIR INDICATES FEW OR NO CLOUDS BELOW 12,000 FEET WITH NO
SIGNIFICANT WEATHER AND/OR OBSTRUCTIONS TO VISIBILITY.

AZZ001>003-036-280000-
NORTHWEST ARIZONA

CITY           SKY/WX    TMP DP  RH WIND       PRES   REMARKS
BULLHEAD CITY  SUNNY    111  16   3 S12G21    29.63F HX 102
KINGMAN        SUNNY    100  23   6 SW20G29   29.90F
$$

AZZ004>008-015-016-018-280000-
NORTH CENTRAL ARIZONA

CITY           SKY/WX    TMP DP  RH WIND       PRES   REMARKS
GRAND CANYON   SUNNY     87   4   4 SW16G26   30.11F
PRESCOTT       SUNNY     91  -3   3 SW17G32   30.04F
FLAGSTAFF      SUNNY     83   0   4 SW22G35   30.17S
PAYSON         SUNNY     91  19   7 W10G18    30.08F
PAGE           SUNNY    100   8   3 S9        29.84F
$$

AZZ009>014-017-280000-
NORTHEAST ARIZONA

CITY           SKY/WX    TMP DP  RH WIND       PRES   REMARKS
WINSLOW        SUNNY     96  15   5 SW22G30   29.98F
SAINT JOHNS    SUNNY     93  21   7 W21G30    30.03F
WINDOW ROCK    SUNNY     90  17   7 SW20G33   30.09F
SHOW LOW       SUNNY     86  19   8 SW24G33   30.14F
$$

AZZ540-542>544-546-548-280000-
GREATER PHOENIX AREA

CITY           SKY/WX    TMP DP  RH WIND       PRES   REMARKS
PHOENIX        MOSUNNY  109  28   6 S13       29.72F HX 101
BUCKEYE        SUNNY    109  27   5 SW12      29.72F HX 101
GLENDALE       MOSUNNY  109  25   5 S15G22    29.74F HX 101
LUKE AFB       SUNNY    109  21   4 SW16G25   29.71F HX 100
DEER VALLEY    SUNNY    106  18   4 VRB7G18   29.75F
SCOTTSDALE     SUNNY    107  20   4 SW6G17    29.77F
MESA-FALCON    MOSUNNY  N/A N/A N/A MISG      29.75F
MESA-GATEWAY   SUNNY    108  28   6 SW14G23   29.77F HX 100
CHANDLER       SUNNY    108  27   6 SW14      29.74F HX 100
$$

AZZ539-553-280000-
SOUTHWEST MARICOPA COUNTY AND PINAL COUNTY

CITY           SKY/WX    TMP DP  RH WIND       PRES   REMARKS
CASA GRANDE    SUNNY    107  36   8 W12G20    29.77F HX 100
GILA BEND      SUNNY    111  26   5 W21G29    29.70F HX 103
$$

AZZ503-504-507>509-280000-
SOUTHEAST ARIZONA

CITY           SKY/WX    TMP DP  RH WIND       PRES   REMARKS
TUCSON         SUNNY    106  30   7 SW14G28   29.87F
DAVIS-MONTHAN  SUNNY    105  29   7 W13G22    29.85F
RYAN FIELD     SUNNY    108  30   7 W14G25    29.85F HX 100
NOGALES        SUNNY    100  32   9 W12G20    29.97F
SIERRA VISTA   MOSUNNY   97  29   9 NW15G22   30.03F
DOUGLAS        MOSUNNY  100  30   8 N13G23    29.95F
SAFFORD        SUNNY    106  27   6 NW25G31   29.83F
$$

AZZ532-280000-
SOUTHWEST ARIZONA

CITY           SKY/WX    TMP DP  RH WIND       PRES   REMARKS
YUMA           SUNNY    113  29   5 W14       29.67F HX 105
$$

CAZ041-043-047-048-061-525>527-560>570-280000-
SOUTHERN CALIFORNIA

CITY           SKY/WX    TMP DP  RH WIND       PRES   REMARKS
DOWNTOWN L.A.  SUNNY     82  57  42 VRB3      29.84F
L.A. AIRPORT   SUNNY     74  59  59 W12       29.86F
SAN DIEGO      MOSUNNY   78  60  53 NW8       29.89F
BURBANK        SUNNY     90  43  19 S13       29.85F
ONTARIO        SUNNY     97  35  11 SW14G24   29.84F
RIVERSIDE      SUNNY    100  27   7 W17       29.84S
PALM SPRINGS   SUNNY    114  20   4 NW18      29.69F HX 104
EL CENTRO NAS  SUNNY    115  -3   1 W17G26    29.67F HX 104
IMPERIAL       CLOUDY   112  35   7 W16G25    29.64F HX 105
BLYTHE         PTSUNNY  112   7   2 CALM      29.65F HX 102
NEEDLES        MOSUNNY  116 -23   0 W21G31    29.67F HX 104
$$

NVZ020-UTZ003-280000-
SOUTHERN NEVADA-UTAH

CITY           SKY/WX    TMP DP  RH WIND       PRES   REMARKS
LAS VEGAS      SUNNY    106   6   2 S14G23    29.73F
SALT LAKE CITY MOSUNNY   90  34  13 N12G17    29.90F
$$

NMZ009-TXZ055-280000-
NEW MEXICO-WEST TEXAS

CITY           SKY/WX    TMP DP  RH WIND       PRES   REMARKS
ALBUQUERQUE    MOSUNNY   91  44  19 S28G33    29.98F
EL PASO        MOSUNNY   94  51  23 CALM      29.95F
$$


........................KEY........................
SKY/WX - SKY CONDITION/WEATHER
TMP    - TEMPERATURE IN FAHRENHEIT
DP     - DEW POINT IN FAHRENHEIT
RH     - RELATIVE HUMIDITY IN PERCENT
WIND   - DIRECTION AND SPEED IN MILES PER HOUR (MPH)
VRB    - VARIABLE WIND DIRECTION
PRES   - MEAN SEA LEVEL PRESSURE IN INCHES OF MERCURY
         F - FALLING PRESSURE   R - RISING PRESSURE
         S - STEADY PRESSURE
VSB    - VISIBILITY IN MILES
HX     - HEAT INDEX IN FAHRENHEIT
WCI    - WIND CHILL INDEX IN FAHRENHEIT
TC     - TEMPERATURE IN CELSIUS WHICH IS ALSO KNOWN AS
         TEMPERATURE IN CENTIGRADE
AFB    - AIR FORCE BASE
         LUKE AFB IS LUKE AIR FORCE BASE
         DAVIS-MONTHAN IS DAVIS-MONTHAN AIR FORCE BASE
NAS    - NAVAL AIR STATION
         EL CENTRO NAS IS EL CENTRO NAVAL AIR STATION
N/A    - NOT AVAILABLE




USA.gov is the U.S. government's official web portal to all federal, state and local government web resources and services.